Regional Weather Roundup
Issued by NWS Pendleton, OR

Current Version | Previous Version | Text Only | Print | Product List | Glossary On
Versions: 1 2 3 4 5 6 7 8 9 10 11 12 13 14 15 16 17 18 19 20 21 22 23 24 25 26 27 28 29 30 31 32 33 34 35 36 37 38 39 40 41 42 43 44 45 46 47 48 49 50
000
ASUS46 KPDT 040704
RWRPDT
PENDLETON REGIONAL WEATHER ROUNDUP
NATIONAL WEATHER SERVICE PENDLETON OREGON
1200 AM PDT TUE OCT 4 2022

NOTE: FAIR INDICATES FEW OR NO CLOUDS BELOW 12,000 FEET WITH NO
SIGNIFICANT WEATHER AND/OR OBSTRUCTIONS TO VISIBILITY.

# INDICATES UNOFFICIAL STATION AND DATA

WAZ520-040810-
EAST SLOPES OF WASHINGTON CASCADES

CITY            SKY/WX      TMP DP  RH  WIND    PRES   REMARKS
#BULLFROG       N/A         46  43  89  CALM    N/A
#ELK HTS DOT    N/A         56  56  100 SW1     N/A
#GLENWOOD       N/A         45  41  86  CALM    30.09S
#NILE           N/A         49  42  77  CALM    29.47R
#TROUT LAKE 1E  N/A         45  42  89  CALM    30.13S
$$

WAZ521-040810-
SIMCOE HIGHLANDS

CITY            SKY/WX      TMP DP  RH  WIND    PRES   REMARKS
#SATUS PASS DOT N/A         54  42  64  CALM    N/A
#CENTERVILLE 1SWN/A         50  41  71  CALM    30.00S
#LYLE 6NE       N/A         63  47  56  NE5     30.03R
#PITT 4SE       N/A         59  46  62  NE1     30.04S
$$

WAZ026-040810-
KITTITAS VALLEY

CITY            SKY/WX      TMP DP  RH  WIND    PRES   REMARKS
ELLENSBURG AP   FAIR        55  43  64  E6      30.10S
#ELLENSBURG CWU N/A         55  47  74  CALM    30.01S
#ELLENSBURG 1E  N/A         50  45  83  CALM    30.09S
#MANASTASH RDG  N/A         63  43  48  CALM    N/A
#ROCKY CYN DOT  N/A         54  42  64  N3      N/A
#RYEGRASS DOT   N/A         64  42  45  W3      N/A
#THORP 6N       N/A         50  43  77  CALM    29.99S
$$

WAZ027-040810-
YAKIMA VALLEY

CITY            SKY/WX      TMP DP  RH  WIND    PRES   REMARKS
SUNNYSIDE AP    FAIR        50  48  93  CALM    30.06S
YAKIMA AIRPORT  FAIR        54  46  74  W7      30.08S
#MABTON         N/A         54  48  80  CALM    30.06R
#NACHES 2SW     N/A         58  46  64  NW1     30.10S
#OUTLOOK DOT    N/A         58  52  80  CALM    N/A
#PARKER DOT     N/A         67  47  49  CALM    N/A
#TERRACE HTS    N/A         56  47  72  CALM    30.01S
#I82 S UMTANUM RN/A         57  38  49  NE6     N/A
#UNION GAP DOT  N/A         55  49  80  N2      N/A
#ZILLAH DOT     N/A         56  49  77  CALM    N/A
$$

WAZ028-040810-
LOWER COLUMBIA BASIN...WASHINGTON

CITY            SKY/WX      TMP DP  RH  WIND    PRES   REMARKS
PASCO           FAIR        56  53  90  MISG    30.04R
RICHLAND AWOS   PTCLDY      58  50  75  CALM    30.04S
#BASIN CITY 5SW N/A         61  52  72  NE2     30.04R
#BENTON CITY    N/A         57  48  72  CALM    29.93S
#CONNELL 5N     N/A         61  47  60  CALM    30.03R
#ELTOPIA 6NW    N/A         63  51  65  CALM    29.02R
#KAHLOTUS       N/A         62  48  60  CALM    30.02R
#KENNEWICK 3S   N/A         64  51  63  CALM    30.02R
#PROSSER DOT    N/A         54  50  86  CALM    N/A
#SAGEMOOR 2W    N/A         64  52  65  N2      30.01R
#TOUCHET 2S     N/A         51  46  83  CALM    30.01R
$$

WAZ029-040810-
FOOTHILLS OF THE BLUES...WASHINGTON

CITY            SKY/WX      TMP DP  RH  WIND    PRES   REMARKS
WALLA WALLA AP  FAIR        61  47  60  E7      30.05S
#CLYDE 6NW      N/A         55  45  69  CALM    30.06S
#DELANEY DOT    N/A         55  49  80  CALM    N/A
#LOWDEN 2SE     N/A         55  50  83  CALM    29.91R
#PRESCOTT       N/A         57  48  72  CALM    30.01S
#WALLA WALLA 5E N/A         60  49  67  CALM    N/A
#WHITMAN MISSIONN/A         55  51  86  CALM    30.13S
$$

WAZ030-040810-
BLUE MOUNTAINS...WASHINGTON

CITY            SKY/WX      TMP DP  RH  WIND    PRES   REMARKS
$$

ORZ009-041-WAZ024-040810-
COLUMBIA RIVER GORGE

CITY            SKY/WX      TMP DP  RH  WIND    PRES   REMARKS
HOOD RIVER AP   FAIR        55  50  83  CALM    30.06S
THE DALLES AP   FAIR        63  46  54  E3      30.04R
#CELILO DOT     N/A         65  44  46  S2      N/A
#LYLE           N/A         66  46  48  N3      30.05S
#RUFUS DOT      N/A         66  46  48  S6      N/A

$$

ORZ510-040810-
NORTH CENTRAL OREGON

CITY            SKY/WX      TMP DP  RH  WIND    PRES   REMARKS
#COW CYN RST AREN/A         67  40  37  N5      N/A
#DUFUR          N/A         51  43  74  W1      30.01S
#GRASS VALLEY 1SN/A         59  45  60  CALM    29.96F
#KENT DOT       N/A         62  37  39  NE7     N/A
#WAPANITIA AIRPON/A         59  45  60  NW1     30.05R
#WASCO DOT      N/A         55  45  69  E1      N/A
#WASCO 5NE      N/A         58  46  64  CALM    30.01R
$$

ORZ511-040810-
CENTRAL OREGON

CITY            SKY/WX      TMP DP  RH  WIND    PRES   REMARKS
BEND AIRPORT    FAIR        61  39  44  NW3     30.17R
MADRAS AIRPORT  FAIR        54  37  52  SE5     30.13S
PRINEVILLE AP   MOCLEAR     48  30  49  S5      30.15R
REDMOND AIRPORT FAIR        57  38  49  NW3     30.13R
#ASHWOOD SCHOOL N/A         58  38  47  S5      30.07S
#CULVER         N/A         56  42  59  CALM    29.39S
#PRINEVILLE     N/A         53  40  61  CALM    30.13R

$$


ORZ509-040810-
EAST SLOPES OF OREGON CASCADES

CITY            SKY/WX      TMP DP  RH  WIND    PRES   REMARKS
SISTERS AWOS    N/A         50  37  61  CALM    30.11S
SUNRIVER AWOS   FAIR        43  37  79  CALM    30.23R
#BLUE BOX PASS  N/A         60  N/A N/A CALM    N/A
#CAMP SHERMAN   N/A         46  37  71  CALM    30.10R
#SISTERS ODOT   N/A         47  35  63  CALM    N/A
#WANOGA BUTTE D N/A         54  34  47  N1      N/A

$$

ORZ044-040810-
LOWER COLUMBIA BASIN...OREGON

CITY            SKY/WX      TMP DP  RH  WIND    PRES   REMARKS
HERMISTON       FAIR        55  47  74  CALM    30.05R
#BOARDMAN SCHOOLN/A         55  48  77  CALM    29.99R
#ECHO 8SW       N/A         55  49  80  W1      30.06R
#I-84 EX 198 DOTN/A         63  48  58  NE8     N/A
#UMATILLA       N/A         58  49  72  CALM    30.06S
$$

ORZ507-040810-
NORTHERN FOOTHILLS OF THE BLUES

CITY            SKY/WX      TMP DP  RH  WIND    PRES   REMARKS
PENDLETON AIRPT FAIR        61  46  58  SE10    30.07S
#ATHENA         N/A         55  48  77  CALM    30.03S
#CAYUSE         N/A         58  48  69  E3      29.99S
#HELIX SCHOOL   N/A         51  44  77  CALM    30.03S
#HOLDMAN 5SE    N/A         57  47  69  CALM    30.06S
#HOLDMAN 6E     N/A         61  49  65  CALM    29.82R
#M-FREEWATER 5SEN/A         62  50  65  CALM    30.05R
#PDT SUNRIDGE   N/A         52  44  74  CALM    30.03S
#PENDLETON 6SE  N/A         56  47  72  CALM    29.98R
#UMAPINE 2E     N/A         57  50  77  CALM    30.01R

$$

ORZ508-040810-
SOUTHERN FOOTHILLS OF THE BLUES

CITY            SKY/WX      TMP DP  RH  WIND    PRES   REMARKS
#AJAX           N/A         67  47  49  NE3     30.09S
#HEPPNER EOC    N/A         58  41  53  CALM    29.97R
#HEPPNER 4NE    N/A         55  44  66  E3      30.02R
#OLEX 4N        N/A         59  45  60  CALM    30.02S
#RUGGS 2SW      N/A         59  41  51  S7      30.05S

$$

ORZ502-503-040810-
BLUE MOUNTAINS

CITY            SKY/WX      TMP DP  RH  WIND    PRES   REMARKS
MEACHAM         FAIR        42  38  86  CALM    30.17S
#BATTLE MTN DOT N/A         52  42  69  S2      N/A
#LADD CYN SMT   N/A         44  42  93  CALM    N/A
#LADD CREEK ODOTN/A         52  36  54  W3      N/A
#N POWDER DOT   N/A         44  39  82  CALM    N/A
#TOLLGATE       N/A         49  42  77  CALM    30.22S
#TROY SCHOOL    N/A         53  48  83  CALM    29.93R
#WESTON 4E      N/A         64  45  50  CALM    29.96F
$$

ORZ505-040810-
JOHN DAY BASIN

CITY            SKY/WX      TMP DP  RH  WIND    PRES   REMARKS
JOHN DAY        FAIR        54  33  45  E8      30.17R
#DAYVILLE SCHOOLN/A         57  33  40  CALM    30.07R
#MITCHELL 8NW   N/A         66  39  37  CALM    30.03S
#MONUMENT HS    N/A         51  38  61  CALM    29.93S
#MT. VERNON 5SE N/A         57  35  43  CALM    30.18S
$$

ORZ506-040810-
OCHOCO AND JOHN DAY HIGHLANDS

CITY            SKY/WX      TMP DP  RH  WIND    PRES   REMARKS
#BUCK CREEK DOT N/A         51  24  34  W1      N/A
#HORSE RIDGE DO N/A         38  22  52  S5      N/A
#KEYES SMT DOT  N/A         52  36  54  CALM    N/A
#PAULINA ODOT   N/A         51  27  39  N1      N/A
#PRAIRIE CITY   N/A         44  37  76  E1      30.10S
#SENECA 9NW     N/A         40  30  67  CALM    30.12S
$$

ORZ049-040810-
GRANDE RONDE VALLEY

CITY            SKY/WX      TMP DP  RH  WIND    PRES   REMARKS
LA GRANDE       FAIR        49  43  80  NW5     30.15S
#COVE SCHOOL    N/A         52  45  77  CALM    30.14S
#COVE 6NW       N/A         50  44  80  CALM    30.11R
#ELGIN 1E       N/A         48  40  74  CALM    N/A
#IMBLER SCHOOL  N/A         50  43  77  CALM    30.09S
#ISLAND CITY 4N N/A         58  55  90  CALM    30.04R
#LADD CYN DOT   N/A         57  45  64  SE12    N/A
#UNION 1S       N/A         55  45  69  CALM    30.09S
$$

ORZ050-040810-
WALLOWA COUNTY

CITY            SKY/WX      TMP DP  RH  WIND    PRES   REMARKS
JOSEPH AIRPORT  FAIR        48  41  77  MISG    30.21S
#ENTERPRISE HS  N/A         47  43  86  CALM    29.98S
#IMNAHA SCHOOL  N/A         55  49  80  CALM    30.11R
#JOSEPH 3N      N/A         46  39  76  CALM    30.20F
#LOSTINE 3SE    N/A         50  43  77  W3      30.26S
#MT HOWARD 8000 N/A         49  37  63  CALM    30.35F
#WALLOWA LAKE   N/A         56  45  66  E2      30.24F
#WALLOWA SCHOOL N/A         47  44  89  CALM    30.09S



$$


USA.gov is the U.S. government's official web portal to all federal, state and local government web resources and services.